TimeEDT,TemperatureF,Dew PointF,Humidity,Sea Level PressureIn,VisibilityMPH,Wind Direction,Wind SpeedMPH,Gust SpeedMPH,PrecipitationIn,Events,Conditions,WindDirDegrees,DateUTC
12:51 AM,59.0,39.2,48,30.02,10.0,WNW,16.1,23.0,N/A,,Clear,290,2012-10-22 04:51:00
1:51 AM,57.9,41.0,53,30.03,10.0,WNW,16.1,-,N/A,,Clear,300,2012-10-22 05:51:00
2:51 AM,57.2,41.0,55,30.03,10.0,WNW,17.3,24.2,N/A,,Scattered Clouds,290,2012-10-22 06:51:00
3:51 AM,55.9,41.0,57,30.04,10.0,WNW,10.4,-,N/A,,Partly Cloudy,300,2012-10-22 07:51:00
4:51 AM,55.0,41.0,59,30.05,10.0,NW,8.1,-,N/A,,Partly Cloudy,310,2012-10-22 08:51:00
5:51 AM,53.6,41.0,62,30.07,10.0,West,6.9,-,N/A,,Partly Cloudy,270,2012-10-22 09:51:00
8:51 AM,55.4,42.8,63,30.10,10.0,NW,15.0,23.0,N/A,,Clear,310,2012-10-22 12:51:00
9:51 AM,55.9,44.1,64,30.11,10.0,NW,11.5,19.6,N/A,,Clear,320,2012-10-22 13:51:00
10:51 AM,57.2,42.8,59,30.09,10.0,NW,10.4,-,N/A,,Clear,310,2012-10-22 14:51:00
11:51 AM,61.0,43.0,52,30.07,10.0,NW,11.5,20.7,N/A,,Clear,310,2012-10-22 15:51:00
12:51 PM,63.0,43.0,48,30.05,10.0,NW,15.0,24.2,N/A,,Partly Cloudy,320,2012-10-22 16:51:00
1:51 PM,64.9,42.1,43,30.02,10.0,WNW,13.8,19.6,N/A,,Partly Cloudy,300,2012-10-22 17:51:00
2:51 PM,66.9,43.0,42,30.01,10.0,NW,12.7,23.0,N/A,,Partly Cloudy,310,2012-10-22 18:51:00
3:51 PM,68.0,42.1,39,30.01,10.0,NW,13.8,23.0,N/A,,Clear,310,2012-10-22 19:51:00
4:51 PM,69.1,42.1,38,30.00,10.0,WNW,11.5,-,N/A,,Clear,290,2012-10-22 20:51:00
5:51 PM,68.0,42.8,40,30.01,10.0,WNW,10.4,16.1,N/A,,Clear,290,2012-10-22 21:51:00
6:51 PM,68.0,41.0,37,30.03,10.0,West,11.5,-,N/A,,Clear,280,2012-10-22 22:51:00
7:51 PM,66.9,42.1,40,30.04,10.0,West,12.7,-,N/A,,Clear,270,2012-10-22 23:51:00
8:51 PM,66.0,43.0,43,30.05,10.0,WNW,16.1,20.7,N/A,,Clear,300,2012-10-23 00:51:00
9:51 PM,64.9,44.1,47,30.05,10.0,WNW,12.7,-,N/A,,Clear,300,2012-10-23 01:51:00
10:51 PM,64.4,44.6,49,30.06,10.0,WNW,11.5,-,N/A,,Clear,300,2012-10-23 02:51:00
11:51 PM,62.6,42.8,48,30.06,10.0,West,5.8,-,N/A,,Scattered Clouds,280,2012-10-23 03:51:00